QPF
0.00 0.00 0.00 0.00 0.00 0.00 0.00 0.00 0.00 0.00 0.00 0.00 0.00 0.00 0.00 0.00 0.00 0.00 0.00 0.00 0.00 0.00 0.00 0.00 0.00 0.00 0.00 0.00 0.00 0.00 0.00 0.00 0.00 0.00 0.00 0.00 0.00 0.00 0.00 0.00 0.00 0.00 0.00 0.00
0.00 0.00 0.00 0.00 0.00 0.00 0.00 0.00 0.00 0.00 0.00 0.00 0.00 0.00 0.00 0.00 0.00 0.00 0.00 0.00 0.00 0.00 0.00 0.00 0.00 0.00 0.00 0.00 0.00 0.00 0.00 0.00 0.00 0.00 0.00 0.00 0.00 0.00 0.00 0.00 0.00 0.00 0.00 0.00
0.00 0.00 0.00 0.00 0.00 0.00 0.00 0.00 0.00 0.00 0.00 0.00 0.00 0.00 0.00 0.00 0.00 0.00 0.00 0.00 0.00 0.00 0.00 0.00 0.00 0.00 0.00 0.00 0.00 0.00 0.00 0.00 0.00 0.00 0.00 0.00 0.00 0.00 0.00 0.00 0.00 0.00 0.00 0.00
0.00 0.00 0.00 0.00 0.00 0.00 0.00 0.00 0.00 0.00 0.00 0.00 0.00 0.00 0.00 0.00 0.00 0.00 0.00 0.00 0.00 0.00 0.00 0.00 0.00 0.00 0.00 0.00 0.00 0.00 0.00 0.00 0.00 0.00 0.00 0.00 0.00 0.00 0.00 0.00 0.00 0.00 0.00 0.00
0.00 0.00 0.00 0.00 0.00 0.00 0.00 0.00 0.00 0.00 0.00 0.00 0.00 0.00 0.00 0.00 0.00 0.00 0.00 0.00 0.00 0.00 0.00 0.00 0.00 0.00 0.00 0.00 0.00 0.00 0.00 0.00 0.00 0.00 0.00 0.00 0.00 0.00 0.00 0.00 0.00 0.00 0.00 0.00
0.00 0.00 0.00 0.00 0.00 0.00 0.00 0.00 0.00 0.00 0.00 0.00 0.00 0.00 0.00 0.00 0.00 0.00 0.00 0.00 0.00 0.00 0.00 0.00 0.00 0.00 0.00 0.00 0.00 0.00 0.00 0.00 0.00 0.00 0.00 0.00 0.00 0.00 0.00 0.00 0.00 0.00 0.00 0.00
0.00 0.00 0.00 0.00 0.00 0.00 0.00 0.00 0.00 0.00 0.00 0.00 0.00 0.00 0.00 0.00 0.00 0.00 0.00 0.00 0.00 0.00 0.00 0.00 0.00 0.00 0.00 0.00 0.00 0.00 0.00 0.00 0.00 0.00 0.00 0.00 0.00 0.00 0.00 0.00 0.00 0.00 0.00 0.00
0.00 0.00 0.00 0.00 0.00 0.00 0.00 0.00 0.00 0.00 0.00 0.00 0.00 0.00 0.00 0.00 0.00 0.00 0.00 0.00 0.00 0.00 0.00 0.00 0.00 0.00 0.00 0.00 0.00 0.00 0.00 0.00 0.00 0.00 0.00 0.00 0.00 0.00 0.00 0.00 0.00 0.00 0.00 0.00
0.00 0.00 0.00 0.00 0.00 0.00 0.00 0.00 0.00 0.00 0.00 0.00 0.00 0.00 0.00 0.00 0.00 0.00 0.00 0.00 0.00 0.00 0.00 0.00 0.00 0.00 0.00 0.00 0.00 0.00 0.00 0.00 0.00 0.00 0.00 0.00 0.00 0.00 0.00 0.00 0.00 0.00 0.00 0.00
0.00 0.00 0.00 0.00 0.00 0.00 0.00 0.00 0.00 0.00 0.00 0.00 0.00 0.00 0.00 0.00 0.00 0.00 0.00 0.00 0.00 0.00 0.00 0.00 0.00 0.00 0.00 0.00 0.00 0.00 0.00 0.00 0.00 0.00 0.00 0.00 0.00 0.00 0.00 0.00 0.00 0.00 0.00 0.00
0.00 0.00 0.00 0.00 0.00 0.00 0.00 0.00 0.00 0.00 0.00 0.00 0.00 0.00 0.00 0.00 0.00 0.00 0.00 0.00 0.00 0.00 0.00 0.00 0.00 0.00 0.00 0.00 0.00 0.00 0.00 0.00 0.00 0.00 0.00 0.00 0.00 0.00 0.00 0.00 0.00 0.00 0.00 0.00
0.00 0.00 0.00 0.00 0.00 0.00 0.00 0.00 0.00 0.00 0.00 0.00 0.00 0.00 0.00 0.00 0.00 0.00 0.00 0.00 0.00 0.00 0.00 0.00 0.00 0.00 0.00 0.00 0.00 0.00 0.00 0.00 0.00 0.00 0.00 0.00 0.00 0.00 0.00 0.00 0.00 0.00 0.00 0.00
0.00 0.00 0.00 0.00 0.00 0.00 0.00 0.00 0.00 0.00 0.00 0.00 0.00 0.00 0.00 0.00 0.00 0.00 0.00 0.00 0.00 0.00 0.00 0.00 0.00 0.00 0.00 0.00 0.00 0.00 0.00 0.00 0.00 0.00 0.00 0.00 0.00 0.00 0.00 0.00 0.00 0.00 0.00 0.00
0.00 0.00 0.00 0.00 0.00 0.00 0.00 0.00 0.00 0.00 0.00 0.00 0.00 0.00 0.00 0.00 0.00 0.00 0.00 0.00 0.00 0.00 0.00 0.00 0.00 0.00 0.00 0.00 0.00 0.00 0.00 0.00 0.00 0.00 0.00 0.00 0.00 0.00 0.00 0.00 0.00 0.00 0.00 0.00
0.00 0.00 0.00 0.00 0.00 0.00 0.00 0.00 0.00 0.00 0.00 0.00 0.00 0.00 0.00 0.00 0.00 0.00 0.00 0.00 0.00 0.00 0.00 0.00 0.00 0.00 0.00 0.00 0.00 0.00 0.00 0.00 0.00 0.00 0.00 0.00 0.00 0.00 0.00 0.00 0.00 0.00 0.00 0.00
0.00 0.00 0.00 0.00 0.00 0.00 0.00 0.00 0.00 0.00 0.00 0.00 0.00 0.00 0.00 0.00 0.00 0.00 0.00 0.00 0.00 0.00 0.00 0.00 0.00 0.00 0.00 0.00 0.00 0.00 0.00 0.00 0.00 0.00 0.00 0.00 0.00 0.00 0.00 0.00 0.00 0.00 0.00 0.00
0.00 0.00 0.00 0.00 0.00 0.00 0.00 0.00 0.00 0.00 0.00 0.00 0.00 0.00 0.00 0.00 0.00 0.00 0.00 0.00 0.00 0.00 0.00 0.00 0.00 0.00 0.00 0.00 0.00 0.00 0.00 0.00 0.00 0.00 0.00 0.00 0.00 0.00 0.00 0.00 0.00 0.00 0.00 0.00
0.00 0.00 0.00 0.00 0.00 0.00 0.00 0.00 0.00 0.00 0.00 0.00 0.00 0.00 0.00 0.00 0.00 0.00 0.00 0.00 0.00 0.00 0.00 0.00 0.00 0.00 0.00 0.00 0.00 0.00 0.00 0.00 0.00 0.00 0.00 0.00 0.00 0.00 0.00 0.00 0.00 0.00 0.00 0.00
0.00 0.00 0.00 0.00 0.00 0.00 0.00 0.00 0.00 0.00 0.00 0.00 0.00 0.00 0.00 0.00 0.00 0.00 0.00 0.00 0.00 0.00 0.00 0.00 0.00 0.00 0.00 0.00 0.00 0.00 0.00 0.00 0.00 0.00 0.00 0.00 0.00 0.00 0.00 0.00 0.00 0.00 0.00 0.00
0.00 0.00 0.00 0.00 0.00 0.00 0.00 0.00 0.00 0.00 0.00 0.00 0.00 0.00 0.00 0.00 0.00 0.00 0.00 0.00 0.00 0.00 0.00 0.00 0.00 0.00 0.00 0.00 0.00 0.00 0.00 0.00 0.00 0.00 0.00 0.00 0.00 0.00 0.00 0.00 0.00 0.00 0.00 0.00
0.00 0.00 0.00 0.00 0.00 0.00 0.00 0.00 0.00 0.00 0.00 0.00 0.00 0.00 0.00 0.00 0.00 0.00 0.00 0.00 0.00 0.00 0.00 0.00 0.00 0.00 0.00 0.00 0.00 0.00 0.00 0.00 0.00 0.00 0.00 0.00 0.00 0.00 0.00 0.00 0.00 0.00 0.00 0.00
0.00 0.00 0.00 0.00 0.00 0.00 0.00 0.00 0.00 0.00 0.00 0.00 0.00 0.00 0.00 0.00 0.00 0.00 0.00 0.00 0.00 0.00 0.00 0.00 0.00 0.00 0.00 0.00 0.00 0.00 0.00 0.00 0.00 0.00 0.00 0.00 0.00 0.00 0.00 0.00 0.00 0.00 0.00 0.00
0.00 0.00 0.00 0.00 0.00 0.00 0.00 0.00 0.00 0.00 0.00 0.00 0.00 0.00 0.00 0.00 0.00 0.00 0.00 0.00 0.00 0.00 0.00 0.00 0.00 0.00 0.00 0.00 0.00 0.00 0.00 0.00 0.00 0.00 0.00 0.00 0.00 0.00 0.00 0.00 0.00 0.00 0.00 0.00
0.00 0.00 0.00 0.00 0.00 0.00 0.00 0.00 0.00 0.00 0.00 0.00 0.00 0.00 0.00 0.00 0.00 0.00 0.00 0.00 0.00 0.00 0.00 0.00 0.00 0.00 0.00 0.00 0.00 0.00 0.00 0.00 0.00 0.00 0.00 0.00 0.00 0.00 0.00 0.00 0.00 0.00 0.00 0.01
0.00 0.00 0.00 0.00 0.00 0.00 0.00 0.00 0.00 0.00 0.00 0.00 0.00 0.00 0.00 0.00 0.00 0.00 0.00 0.00 0.00 0.00 0.00 0.00 0.00 0.00 0.00 0.00 0.00 0.00 0.00 0.00 0.00 0.00 0.00 0.00 0.00 0.00 0.00 0.00 0.00 0.00 0.00 0.02
0.00 0.00 0.00 0.00 0.00 0.00 0.00 0.00 0.00 0.00 0.00 0.00 0.00 0.00 0.00 0.00 0.00 0.00 0.00 0.00 0.00 0.00 0.00 0.00 0.00 0.00 0.00 0.00 0.00 0.00 0.00 0.00 0.00 0.00 0.00 0.00 0.00 0.00 0.00 0.00 0.00 0.00 0.00 0.00
MSLP
1022.78 1023.35 1023.93 1024.49 1024.98 1025.38 1025.68 1025.88 1026.01 1026.08 1026.12 1026.15 1026.19 1026.27 1026.38 1026.54 1026.75 1027.02 1027.36 1027.78 1028.30 1028.93 1029.65 1030.47 1031.34 1032.23 1033.07 1033.82 1034.40 1034.80 1034.98 1034.96 1034.76 1034.44 1034.06 1033.67 1033.31 1033.02 1032.78 1032.57 1032.35 1032.07 1031.70 1031.22
1023.44 1023.94 1024.42 1024.85 1025.21 1025.48 1025.66 1025.77 1025.81 1025.81 1025.79 1025.76 1025.75 1025.76 1025.81 1025.91 1026.06 1026.29 1026.60 1027.02 1027.56 1028.22 1029.00 1029.88 1030.82 1031.77 1032.68 1033.49 1034.14 1034.60 1034.85 1034.89 1034.75 1034.48 1034.13 1033.75 1033.39 1033.06 1032.77 1032.50 1032.22 1031.89 1031.49 1030.98
1024.07 1024.52 1024.92 1025.25 1025.51 1025.68 1025.77 1025.78 1025.74 1025.67 1025.57 1025.46 1025.35 1025.27 1025.23 1025.24 1025.34 1025.53 1025.84 1026.29 1026.88 1027.61 1028.46 1029.41 1030.41 1031.42 1032.37 1033.22 1033.92 1034.43 1034.73 1034.83 1034.76 1034.55 1034.24 1033.88 1033.50 1033.13 1032.78 1032.43 1032.07 1031.67 1031.20 1030.66
1024.63 1025.02 1025.36 1025.62 1025.81 1025.92 1025.94 1025.90 1025.80 1025.64 1025.45 1025.22 1025.00 1024.79 1024.63 1024.56 1024.59 1024.77 1025.10 1025.61 1026.28 1027.10 1028.05 1029.08 1030.15 1031.20 1032.18 1033.04 1033.75 1034.28 1034.62 1034.77 1034.75 1034.60 1034.33 1033.99 1033.61 1033.21 1032.79 1032.36 1031.91 1031.42 1030.88 1030.29
1025.06 1025.40 1025.69 1025.91 1026.06 1026.14 1026.15 1026.08 1025.92 1025.70 1025.40 1025.06 1024.69 1024.34 1024.05 1023.88 1023.86 1024.02 1024.40 1024.98 1025.77 1026.71 1027.77 1028.89 1030.02 1031.10 1032.08 1032.93 1033.62 1034.15 1034.49 1034.67 1034.69 1034.58 1034.36 1034.05 1033.67 1033.24 1032.77 1032.27 1031.73 1031.16 1030.55 1029.91
1025.34 1025.62 1025.87 1026.07 1026.22 1026.31 1026.33 1026.26 1026.09 1025.81 1025.42 1024.96 1024.44 1023.94 1023.51 1023.23 1023.15 1023.32 1023.75 1024.43 1025.34 1026.42 1027.60 1028.82 1030.00 1031.09 1032.06 1032.87 1033.52 1034.00 1034.32 1034.50 1034.55 1034.48 1034.30 1034.02 1033.65 1033.21 1032.71 1032.15 1031.55 1030.91 1030.24 1029.55
1025.46 1025.69 1025.91 1026.10 1026.28 1026.41 1026.47 1026.44 1026.27 1025.96 1025.50 1024.92 1024.27 1023.62 1023.05 1022.67 1022.53 1022.69 1023.17 1023.95 1024.98 1026.19 1027.49 1028.80 1030.03 1031.13 1032.06 1032.82 1033.40 1033.82 1034.10 1034.26 1034.31 1034.26 1034.11 1033.87 1033.54 1033.11 1032.59 1032.01 1031.37 1030.69 1029.97 1029.24
1025.45 1025.62 1025.81 1026.02 1026.23 1026.43 1026.56 1026.58 1026.44 1026.12 1025.61 1024.94 1024.17 1023.38 1022.69 1022.20 1022.01 1022.16 1022.68 1023.53 1024.67 1025.99 1027.40 1028.78 1030.05 1031.15 1032.05 1032.74 1033.25 1033.60 1033.82 1033.94 1033.98 1033.95 1033.83 1033.63 1033.33 1032.92 1032.43 1031.84 1031.19 1030.49 1029.76 1029.00
1025.37 1025.48 1025.65 1025.87 1026.13 1026.38 1026.59 1026.67 1026.58 1026.27 1025.73 1024.99 1024.12 1023.23 1022.42 1021.84 1021.59 1021.71 1022.25 1023.15 1024.36 1025.77 1027.26 1028.70 1030.00 1031.10 1031.97 1032.61 1033.05 1033.34 1033.50 1033.58 1033.61 1033.58 1033.48 1033.31 1033.05 1032.68 1032.21 1031.65 1031.01 1030.32 1029.59 1028.84
1025.26 1025.33 1025.47 1025.70 1025.98 1026.29 1026.56 1026.70 1026.65 1026.36 1025.81 1025.03 1024.09 1023.11 1022.22 1021.56 1021.24 1021.33 1021.85 1022.78 1024.03 1025.48 1027.02 1028.50 1029.82 1030.93 1031.78 1032.39 1032.79 1033.03 1033.16 1033.22 1033.22 1033.19 1033.12 1032.97 1032.74 1032.41 1031.97 1031.44 1030.83 1030.16 1029.46 1028.73
1025.20 1025.22 1025.34 1025.55 1025.85 1026.17 1026.47 1026.64 1026.61 1026.33 1025.77 1024.97 1023.99 1022.96 1022.02 1021.30 1020.92 1020.97 1021.47 1022.38 1023.62 1025.09 1026.64 1028.14 1029.48 1030.60 1031.46 1032.08 1032.47 1032.70 1032.82 1032.87 1032.87 1032.84 1032.78 1032.64 1032.43 1032.13 1031.72 1031.22 1030.64 1030.00 1029.32 1028.63
1025.22 1025.21 1025.29 1025.46 1025.72 1026.03 1026.30 1026.46 1026.41 1026.12 1025.55 1024.74 1023.75 1022.71 1021.73 1020.99 1020.58 1020.59 1021.04 1021.92 1023.13 1024.58 1026.12 1027.62 1028.98 1030.12 1031.01 1031.66 1032.09 1032.35 1032.49 1032.55 1032.57 1032.55 1032.48 1032.36 1032.15 1031.86 1031.46 1030.97 1030.41 1029.80 1029.15 1028.49
1025.34 1025.30 1025.32 1025.43 1025.61 1025.83 1026.03 1026.11 1026.01 1025.68 1025.10 1024.28 1023.31 1022.28 1021.32 1020.58 1020.16 1020.15 1020.57 1021.40 1022.56 1023.96 1025.47 1026.96 1028.33 1029.50 1030.44 1031.15 1031.65 1031.97 1032.16 1032.27 1032.32 1032.31 1032.25 1032.12 1031.91 1031.60 1031.20 1030.71 1030.16 1029.55 1028.92 1028.28
1025.55 1025.47 1025.43 1025.44 1025.50 1025.58 1025.63 1025.59 1025.39 1024.99 1024.38 1023.56 1022.62 1021.64 1020.74 1020.05 1019.66 1019.66 1020.05 1020.83 1021.94 1023.28 1024.74 1026.20 1027.57 1028.78 1029.78 1030.56 1031.15 1031.56 1031.83 1032.00 1032.09 1032.10 1032.04 1031.90 1031.67 1031.34 1030.93 1030.43 1029.86 1029.25 1028.62 1027.98
1025.79 1025.68 1025.55 1025.44 1025.34 1025.25 1025.12 1024.90 1024.57 1024.07 1023.41 1022.61 1021.72 1020.82 1020.02 1019.42 1019.10 1019.13 1019.53 1020.28 1021.33 1022.60 1024.00 1025.43 1026.79 1028.01 1029.07 1029.93 1030.61 1031.11 1031.47 1031.71 1031.85 1031.89 1031.83 1031.68 1031.43 1031.08 1030.63 1030.11 1029.52 1028.89 1028.25 1027.60
1026.00 1025.84 1025.63 1025.38 1025.11 1024.81 1024.47 1024.06 1023.56 1022.96 1022.26 1021.47 1020.65 1019.87 1019.20 1018.73 1018.52 1018.62 1019.05 1019.78 1020.79 1022.00 1023.33 1024.70 1026.03 1027.26 1028.35 1029.28 1030.04 1030.63 1031.07 1031.38 1031.56 1031.62 1031.58 1031.42 1031.15 1030.77 1030.30 1029.75 1029.14 1028.49 1027.82 1027.15
1026.07 1025.87 1025.58 1025.20 1024.75 1024.26 1023.71 1023.10 1022.45 1021.74 1021.00 1020.24 1019.52 1018.87 1018.36 1018.05 1017.98 1018.18 1018.66 1019.41 1020.38 1021.53 1022.79 1024.10 1025.38 1026.59 1027.69 1028.65 1029.47 1030.13 1030.63 1030.99 1031.20 1031.29 1031.25 1031.08 1030.80 1030.41 1029.93 1029.37 1028.74 1028.07 1027.38 1026.67
1025.90 1025.68 1025.32 1024.83 1024.24 1023.57 1022.84 1022.07 1021.28 1020.49 1019.72 1019.02 1018.40 1017.90 1017.57 1017.44 1017.53 1017.85 1018.41 1019.18 1020.13 1021.23 1022.41 1023.64 1024.86 1026.03 1027.11 1028.08 1028.91 1029.60 1030.14 1030.53 1030.77 1030.87 1030.83 1030.66 1030.38 1029.99 1029.51 1028.94 1028.32 1027.65 1026.94 1026.20
1025.42 1025.19 1024.79 1024.23 1023.54 1022.75 1021.89 1020.99 1020.11 1019.27 1018.51 1017.87 1017.36 1017.03 1016.88 1016.93 1017.19 1017.64 1018.28 1019.09 1020.03 1021.08 1022.19 1023.34 1024.49 1025.59 1026.63 1027.57 1028.40 1029.09 1029.64 1030.03 1030.28 1030.38 1030.34 1030.17 1029.89 1029.51 1029.04 1028.50 1027.90 1027.23 1026.53 1025.78
1024.61 1024.38 1023.97 1023.39 1022.65 1021.79 1020.86 1019.90 1018.97 1018.12 1017.40 1016.83 1016.45 1016.27 1016.30 1016.52 1016.94 1017.51 1018.24 1019.08 1020.02 1021.03 1022.08 1023.15 1024.21 1025.25 1026.22 1027.12 1027.92 1028.59 1029.12 1029.51 1029.74 1029.83 1029.79 1029.62 1029.35 1028.99 1028.55 1028.04 1027.47 1026.84 1026.15 1025.42
1023.48 1023.27 1022.87 1022.30 1021.56 1020.70 1019.75 1018.79 1017.87 1017.06 1016.39 1015.91 1015.65 1015.61 1015.79 1016.17 1016.71 1017.40 1018.20 1019.07 1020.01 1020.98 1021.98 1022.98 1023.97 1024.94 1025.86 1026.70 1027.46 1028.10 1028.61 1028.97 1029.19 1029.27 1029.22 1029.05 1028.79 1028.45 1028.04 1027.57 1027.05 1026.46 1025.82 1025.11
1022.10 1021.90 1021.53 1020.99 1020.30 1019.48 1018.58 1017.66 1016.79 1016.04 1015.46 1015.08 1014.93 1015.01 1015.31 1015.80 1016.46 1017.22 1018.08 1018.98 1019.91 1020.86 1021.81 1022.76 1023.69 1024.60 1025.46 1026.27 1026.99 1027.61 1028.09 1028.44 1028.64 1028.70 1028.64 1028.48 1028.22 1027.90 1027.52 1027.10 1026.63 1026.10 1025.51 1024.86
1020.55 1020.35 1020.01 1019.52 1018.89 1018.14 1017.32 1016.49 1015.71 1015.05 1014.55 1014.27 1014.22 1014.40 1014.79 1015.37 1016.10 1016.92 1017.81 1018.72 1019.65 1020.57 1021.49 1022.39 1023.28 1024.15 1024.99 1025.77 1026.47 1027.07 1027.55 1027.89 1028.09 1028.15 1028.09 1027.92 1027.68 1027.37 1027.03 1026.64 1026.22 1025.75 1025.23 1024.64
1018.93 1018.69 1018.37 1017.92 1017.37 1016.71 1015.99 1015.27 1014.59 1014.03 1013.63 1013.44 1013.47 1013.73 1014.19 1014.83 1015.59 1016.44 1017.34 1018.26 1019.17 1020.07 1020.96 1021.84 1022.71 1023.55 1024.38 1025.15 1025.86 1026.47 1026.96 1027.32 1027.53 1027.60 1027.55 1027.40 1027.16 1026.88 1026.55 1026.20 1025.82 1025.41 1024.96 1024.45
1017.28 1016.99 1016.66 1016.25 1015.76 1015.19 1014.58 1013.97 1013.41 1012.96 1012.66 1012.56 1012.66 1012.97 1013.47 1014.14 1014.92 1015.78 1016.68 1017.58 1018.48 1019.36 1020.23 1021.09 1021.94 1022.78 1023.61 1024.40 1025.13 1025.77 1026.30 1026.69 1026.94 1027.05 1027.03 1026.90 1026.69 1026.42 1026.12 1025.79 1025.46 1025.09 1024.70 1024.27
1015.65 1015.28 1014.92 1014.52 1014.09 1013.61 1013.10 1012.60 1012.16 1011.82 1011.61 1011.59 1011.75 1012.11 1012.64 1013.32 1014.11 1014.96 1015.84 1016.73 1017.60 1018.46 1019.31 1020.15 1021.00 1021.84 1022.69 1023.50 1024.27 1024.96 1025.55 1026.00 1026.31 1026.48 1026.51 1026.42 1026.25 1026.00 1025.73 1025.43 1025.12 1024.80 1024.46 1024.10
Thickness
5705 5704 5691 5682 5677 5676 5675 5672 5671 5664 5647 5640 5646 5647 5648 5634 5619 5616 5613 5605 5595 5585 5573 5556 5541 5527 5513 5500 5487 5475 5462 5449 5437 5424 5411 5396 5380 5361 5342 5324 5307 5292 5280 5267
5703 5688 5677 5672 5670 5668 5669 5668 5669 5661 5641 5639 5647 5650 5654 5646 5627 5621 5616 5608 5598 5586 5572 5553 5538 5523 5509 5495 5480 5467 5453 5440 5426 5411 5396 5380 5364 5347 5328 5310 5294 5279 5266 5253
5696 5679 5673 5671 5670 5668 5667 5666 5662 5654 5648 5637 5637 5664 5652 5637 5626 5619 5613 5607 5600 5587 5573 5553 5536 5520 5505 5489 5474 5458 5443 5429 5415 5400 5384 5368 5351 5333 5316 5299 5283 5268 5254 5240
5684 5675 5671 5671 5668 5665 5669 5658 5652 5646 5647 5655 5639 5658 5666 5645 5633 5624 5614 5607 5599 5586 5571 5554 5534 5518 5500 5482 5465 5449 5434 5420 5405 5389 5373 5356 5339 5322 5304 5286 5272 5258 5244 5230
5679 5673 5672 5671 5666 5661 5662 5653 5650 5645 5645 5649 5642 5650 5669 5640 5645 5639 5626 5612 5599 5584 5568 5549 5530 5512 5493 5474 5456 5440 5425 5411 5395 5379 5361 5344 5326 5308 5292 5277 5264 5251 5236 5221
5674 5671 5670 5668 5662 5659 5657 5654 5650 5646 5650 5657 5645 5645 5659 5658 5650 5640 5625 5611 5597 5580 5562 5543 5523 5503 5484 5465 5448 5432 5417 5402 5386 5369 5351 5333 5316 5299 5284 5270 5257 5244 5230 5216
5676 5671 5667 5664 5666 5663 5662 5669 5670 5668 5664 5662 5635 5637 5655 5658 5644 5633 5623 5610 5593 5575 5555 5536 5516 5498 5479 5460 5443 5425 5410 5395 5378 5360 5343 5324 5307 5290 5276 5263 5250 5237 5224 5211
5681 5677 5668 5664 5665 5664 5660 5662 5656 5647 5652 5656 5641 5643 5665 5651 5635 5622 5611 5601 5586 5569 5551 5532 5514 5494 5475 5455 5437 5420 5404 5388 5371 5353 5335 5317 5300 5283 5269 5255 5242 5229 5217 5204
5683 5675 5661 5658 5657 5659 5659 5656 5646 5647 5640 5634 5654 5655 5661 5646 5634 5623 5612 5598 5584 5565 5547 5528 5508 5488 5469 5450 5432 5414 5398 5382 5365 5346 5328 5312 5294 5278 5263 5250 5237 5224 5211 5198
5677 5674 5662 5655 5654 5647 5652 5651 5645 5642 5637 5638 5653 5652 5654 5661 5655 5636 5620 5604 5587 5564 5544 5525 5504 5483 5464 5445 5427 5410 5393 5377 5359 5341 5324 5306 5289 5274 5260 5247 5233 5221 5208 5196
5666 5672 5662 5656 5655 5660 5646 5642 5642 5638 5633 5631 5637 5657 5668 5663 5653 5640 5629 5612 5590 5566 5544 5523 5501 5480 5460 5441 5424 5407 5390 5372 5355 5337 5320 5303 5287 5272 5258 5245 5232 5219 5207 5195
5657 5668 5672 5664 5651 5647 5652 5651 5646 5643 5637 5624 5627 5651 5673 5659 5647 5634 5625 5611 5590 5566 5544 5521 5499 5477 5457 5439 5422 5404 5387 5369 5351 5333 5316 5300 5285 5270 5257 5244 5232 5219 5208 5195
5650 5660 5669 5664 5652 5640 5642 5640 5637 5636 5633 5627 5625 5658 5668 5652 5641 5631 5619 5608 5587 5562 5540 5518 5496 5476 5457 5438 5420 5402 5384 5366 5348 5331 5315 5299 5284 5270 5257 5244 5232 5220 5209 5197
5645 5654 5666 5676 5674 5665 5649 5637 5630 5632 5634 5635 5634 5659 5675 5665 5654 5643 5625 5607 5586 5561 5538 5517 5497 5477 5457 5437 5419 5401 5383 5364 5347 5330 5314 5299 5284 5269 5256 5244 5233 5222 5210 5199
5639 5649 5655 5658 5651 5647 5650 5646 5632 5634 5644 5644 5658 5655 5665 5667 5658 5643 5626 5605 5580 5558 5538 5518 5499 5479 5457 5437 5418 5400 5382 5363 5346 5330 5314 5298 5282 5268 5256 5245 5235 5224 5212 5201
5632 5640 5642 5649 5643 5637 5637 5645 5641 5636 5637 5640 5644 5649 5667 5663 5648 5632 5620 5600 5577 5560 5541 5521 5501 5479 5458 5438 5419 5400 5382 5363 5346 5329 5313 5297 5282 5268 5257 5247 5237 5227 5216 5204
5629 5635 5640 5653 5642 5638 5656 5671 5650 5644 5646 5646 5647 5663 5670 5652 5642 5634 5623 5602 5584 5567 5546 5525 5504 5483 5461 5440 5420 5400 5382 5363 5346 5330 5313 5297 5283 5270 5259 5250 5241 5231 5221 5210
5628 5631 5636 5641 5644 5641 5692 5671 5664 5655 5657 5652 5657 5664 5663 5654 5642 5628 5620 5608 5591 5571 5549 5528 5507 5484 5462 5440 5419 5400 5382 5364 5348 5332 5315 5299 5285 5272 5262 5253 5244 5235 5226 5215
5619 5626 5629 5625 5636 5659 5680 5663 5654 5651 5665 5670 5658 5660 5658 5635 5624 5635 5623 5606 5594 5574 5552 5531 5508 5485 5462 5440 5419 5400 5383 5367 5350 5334 5318 5303 5288 5275 5266 5257 5249 5241 5231 5222
5604 5611 5616 5609 5622 5642 5685 5665 5654 5654 5660 5679 5663 5660 5653 5624 5637 5646 5621 5600 5585 5568 5548 5526 5504 5482 5461 5441 5420 5402 5386 5370 5354 5338 5322 5307 5293 5281 5271 5262 5254 5245 5235 5227
5601 5603 5605 5606 5613 5648 5674 5649 5644 5649 5671 5677 5664 5659 5645 5632 5640 5629 5608 5593 5577 5560 5541 5521 5501 5482 5463 5442 5421 5404 5389 5374 5358 5341 5325 5312 5299 5287 5276 5267 5258 5249 5240 5232
5621 5611 5609 5610 5610 5641 5654 5642 5651 5673 5677 5669 5662 5655 5645 5640 5631 5608 5598 5584 5569 5553 5535 5518 5501 5483 5462 5442 5424 5407 5392 5377 5360 5344 5330 5317 5305 5292 5280 5271 5262 5254 5245 5237
5627 5636 5632 5631 5650 5664 5654 5660 5664 5660 5661 5661 5655 5651 5642 5634 5627 5608 5592 5578 5564 5550 5534 5517 5501 5483 5463 5444 5426 5411 5396 5378 5361 5347 5334 5322 5310 5298 5287 5277 5268 5259 5250 5242
5626 5623 5624 5625 5647 5657 5651 5653 5653 5650 5651 5656 5651 5645 5636 5629 5624 5609 5591 5576 5563 5549 5534 5517 5501 5484 5466 5447 5429 5413 5397 5379 5364 5351 5339 5326 5314 5303 5292 5281 5271 5262 5254 5246
5636 5615 5619 5628 5649 5648 5656 5654 5656 5655 5652 5649 5646 5640 5633 5626 5619 5606 5590 5577 5564 5549 5534 5518 5504 5489 5472 5451 5432 5415 5398 5381 5367 5354 5341 5329 5317 5306 5296 5285 5275 5265 5257 5248
5623 5622 5625 5646 5657 5649 5664 5665 5657 5651 5650 5649 5644 5640 5631 5621 5617 5604 5590 5578 5564 5550 5535 5519 5506 5492 5475 5455 5437 5418 5401 5385 5371 5357 5345 5333 5321 5309 5297 5287 5278 5269 5258 5250